Regional Weather Roundup
Issued by NWS

Home | Current Version | Previous Version | Text Only | Print | Product List | Glossary Off
Versions: 1 2 3 4 5 6 7 8 9 10 11 12 13 14 15 16 17 18 19 20 21 22 23 24 25 26 27 28 29 30 31 32 33 34 35 36 37 38 39 40 41 42 43 44 45 46 47 48 49 50

000
ASUS43 KDTX 162101
RWRMI
MICHIGAN HOURLY REGIONAL WEATHER ROUNDUP
NATIONAL WEATHER SERVICE DETROIT/PONTIAC MI
400 PM EST SAT DEC 16 2017

NOTE: "FAIR" INDICATES FEW OR NO CLOUDS BELOW 12,000 FEET WITH NO
SIGNIFICANT WEATHER AND/OR OBSTRUCTION TO VISIBILITY.

MIZ047>049-052>055-059>063-066>070-074>076-081>083-162200-
SOUTHEAST LOWER MICHIGAN

CITY           SKY/WX    TMP DP  RH WIND       PRES   REMARKS
ADRIAN         CLEAR     37  27  67 SW6       29.99R WCI  32
ALMA           CLOUDY    24  21  87 NE8       30.05R WCI  15
ANN ARBOR      MOCLDY    32  26  78 NE9       30.00R WCI  24
BAD AXE        CLOUDY    23  18  79 NE8       30.07R WCI  14
CARO           CLOUDY    25  21  86 N3        30.05R
DETROIT CITY   CLOUDY    27  21  78 E9        30.04R WCI  18
DETROIT        CLOUDY    32  24  72 NE8       30.03R WCI  25
FLINT          CLOUDY    25  18  74 E9        30.03R WCI  15
GROSSE ILE     CLOUDY    28  24  85 NE13      30.02R WCI  18
HILLSDALE      CLEAR     37  27  65 SW5       29.95R WCI  34
HOWELL         CLOUDY    28  24  84 E8        30.00R WCI  20

CITY           SKY/WX    TMP DP  RH WIND       PRES   REMARKS
JACKSON        MOCLDY    38  27  64 NE8       29.97R WCI  32
LAMBERTVILLE   CLEAR     39  28  63 W5        29.99R
LANSING        CLOUDY    26  22  84 NE8       30.02R WCI  18
LAPEER         CLOUDY    25  19  78 CALM      30.04R
MASON          CLOUDY    30  22  74 NE6       30.00R WCI  24
MONROE         CLEAR     32  26  78 NE8       30.01R WCI  24
MT. CLEMENS    CLOUDY    27  22  81 NE6       30.03R WCI  20
PONTIAC        CLOUDY    25  20  81 NE7       30.01R WCI  17
PORT HOPE        N/A     24  18  77 NE13      30.05R WCI  12
PORT HURON     CLOUDY    25  19  80 E9        30.06R WCI  15
TRI CITIES     CLOUDY    25  21  85 NE7       30.07R WCI  17
MIDLAND        CLOUDY    25  19  78 NE5       30.07R WCI  19
TROY           CLOUDY    28  22  79 NE7       30.05R WCI  20
SAGINAW HB     CLOUDY    25  21  86 NE5       30.05R WCI  19
$$
MIZ043>046-050>051-056>058-064>065-071>073-077>080-162200-
SOUTHWEST LOWER MICHIGAN

CITY           SKY/WX    TMP DP  RH WIND       PRES   REMARKS
BATTLE CREEK   PTCLDY    39  27  62 CALM      29.96R
BENTON HARBOR  SUNNY     41  26  55 S3        29.95R
BIG RAPIDS     CLOUDY    23  18  80 E6        30.01R WCI  16
COLDWATER      CLEAR     38  26  63 SW5       29.96R WCI  34
HOLLAND        CLOUDY    30  24  78 E8        29.99R WCI  22
GRAND RAPIDS   CLOUDY    27  22  81 E10       30.00R WCI  17
IONIA          CLOUDY    26  20  79 E10       30.00R WCI  15
KALAMAZOO      CLEAR     38  26  62 S8        29.96R WCI  32
LUDINGTON      CLOUDY    26  19  73 E8        30.01R WCI  18
MARSHALL       CLEAR     37  26  62 SE3       29.96R
MOUNT PLEASANT CLOUDY    25  18  75 E7        30.04R WCI  17
MUSKEGON       CLOUDY    29  21  72 E13       30.00R WCI  19
SOUTH HAVEN    CLEAR     42  28  58 W6        29.96R
$$
MIZ016>042-162200-
NORTHERN LOWER MICHIGAN

CITY           SKY/WX    TMP DP  RH WIND       PRES   REMARKS
ALPENA         CLOUDY    14   9  80 N6        30.12R WCI   5
BEAVER ISLAND  FLURRIES  15  10  82 NE7       30.12R WCI   5
BELLAIRE       CLOUDY    19  14  79 NE5       30.09R WCI  12
CADILLAC       FLURRIES  21  15  77 SE9       29.99R WCI  11
CHARLEVOIX     CLOUDY    16  10  78 E9        30.12R WCI   4
FRANKFORT      CLOUDY    26  16  65 E7        30.04R WCI  19
GAYLORD        CLOUDY    14   8  77 NE6       30.02R WCI   5
GRAYLING       CLOUDY    18  11  74 NE8       30.04R WCI   7
HARBOR SPRINGS CLOUDY    13   7  77 E10       30.10R WCI   0
HOUGHTON LAKE  CLOUDY    22  12  65 E7        30.03R WCI  13
MANISTEE       CLOUDY    26  18  71 E12       30.02R WCI  16
OSCODA         CLOUDY    19  11  73 N10       30.08R WCI   7
PELLSTON       CLOUDY    12   7  80 NE7       30.12R WCI   1
ROGERS CITY    LGT SNOW  13   9  82 CALM      30.13S
TRAVERSE CITY  CLOUDY    23  14  68 E7        30.05R WCI  15
$$
MIZ007>008-015-162200-
EASTERN UPPER MICHIGAN

CITY           SKY/WX    TMP DP  RH WIND       PRES   REMARKS
KINROSS        PTCLDY     6  -7  54 CALM      30.13R
MACKINAC ISLAN CLOUDY     9   1  69 NE3       30.13R
NEWBERRY       CLOUDY     7   3  84 E7        30.11R WCI  -5
S. S. MARIE    CLOUDY     5  -8  55 CALM      30.13R
MUNISING         N/A     17  12  80 E8        30.10R WCI   7
$$
MIZ004>006-011>014-085-162200-
CENTRAL UPPER MICHIGAN

CITY           SKY/WX    TMP DP  RH WIND       PRES   REMARKS
MANISTIQUE     CLOUDY    15   4  63 E5        30.10R WCI   7
ESCANABA       FLURRIES  18  11  74 NE8       30.09R WCI   8
MENOMINEE      FLURRIES  24  20  84 NE7       30.05R WCI  16
SAWYER-GWINN   CLEAR     18   9  68 NE3       30.03R
$$
MIZ001>003-009>011-084-162200-
WESTERN UPPER MICHIGAN

CITY           SKY/WX    TMP DP  RH WIND       PRES   REMARKS
IRON MOUNTAIN  CLOUDY    20  11  68 E5        30.01R WCI  13
HOUGHTON       LGT SNOW  19  12  74 NE7       30.03R WCI  10
COPPER HARBOR    N/A     19  13  77 VRB6      30.08R WCI  11
IRONWOOD       FLURRIES  20  12  71 SE3       30.00R
$$

ABBREVIATIONS USED IN REMARKS
   TC - TEMPERATURE IN CELSIUS
  WCI - WIND CHILL INDEX
   HX - HEAT INDEX
  VSB - VISIBILITY





USA.gov is the U.S. government's official web portal to all federal, state and local government web resources and services.